Dewpoint
62 60 68 72 72 73 73 72 71 72 72 71 71 71 71 71 70 69 69 67 65 65 64 67 67 67 69 69 68 68 69 71 71 70 70 70 69 68 68 67 66 63 66
53 60 66 72 73 73 73 73 73 73 73 71 70 70 70 69 69 68 67 67 66 66 65 67 68 69 69 69 68 68 70 70 70 71 70 69 70 67 68 67 66 64 65
53 56 65 72 73 72 73 73 73 73 72 71 69 68 69 69 69 68 67 67 66 67 67 70 70 69 69 70 67 67 69 69 69 70 69 67 68 69 68 66 65 65 65
48 55 68 73 73 72 72 72 72 72 72 72 70 68 69 69 69 68 67 67 69 69 68 70 70 69 69 69 67 65 68 69 69 69 66 67 68 69 68 66 65 65 65
45 49 66 73 72 72 72 72 72 72 72 73 72 70 70 70 70 69 68 68 70 70 70 69 69 69 69 69 69 69 68 68 69 68 67 68 67 66 66 65 64 65 65
39 44 58 69 72 72 72 72 72 72 72 72 72 72 70 70 70 70 70 71 71 71 71 70 68 68 68 69 70 69 68 69 69 67 67 67 66 66 65 65 64 64 64
36 39 43 58 61 66 71 71 72 72 71 71 71 72 71 70 70 71 72 71 71 71 71 70 68 68 67 69 69 68 65 66 66 66 66 66 65 65 64 64 65 64 64
35 38 40 48 54 56 61 67 71 71 71 72 72 71 71 71 71 71 72 72 72 71 71 70 69 68 68 68 69 68 65 65 65 66 65 65 65 67 64 65 65 65 64
37 39 40 40 44 50 53 61 60 65 70 71 71 71 71 71 71 72 71 72 71 71 71 71 70 68 68 67 68 69 66 62 64 65 64 64 65 67 65 65 65 65 65
40 43 43 43 41 41 41 52 54 57 61 67 70 70 69 69 70 71 70 71 72 72 71 71 71 70 69 69 69 69 67 63 59 64 64 63 65 66 65 66 65 65 65
44 46 46 45 45 44 40 43 49 51 55 60 65 68 68 69 69 69 69 69 70 71 72 71 71 70 69 68 69 68 66 62 59 58 62 64 65 66 66 66 66 65 65
44 45 46 46 46 45 43 46 46 47 49 49 56 63 68 69 69 69 67 68 69 70 70 71 71 70 69 65 65 66 63 62 59 57 57 63 65 66 67 67 67 66 66
44 45 45 45 46 45 45 46 44 45 49 50 50 52 60 67 69 69 70 70 69 67 68 68 69 69 68 67 65 63 62 62 62 58 56 60 63 66 67 67 68 67 66
44 44 45 45 45 45 46 45 44 45 47 48 50 50 52 62 66 68 69 69 69 68 68 68 68 68 68 67 66 64 62 61 62 61 59 60 62 65 67 67 69 68 67
42 44 44 45 45 45 45 45 44 44 46 47 49 50 50 50 51 60 66 68 68 68 68 67 67 67 67 67 67 66 64 62 61 61 60 59 60 62 65 67 67 68 68
42 43 44 44 45 45 44 45 45 44 45 48 49 49 48 50 50 53 57 64 67 67 67 67 66 66 66 65 65 66 65 64 62 61 60 59 60 61 63 65 67 67 68
41 43 43 43 44 44 44 45 45 45 45 47 48 49 48 48 49 52 55 56 59 67 67 67 66 66 66 64 64 65 65 65 64 62 61 60 60 60 62 63 65 67 69
42 42 43 43 44 44 45 45 45 46 46 46 47 48 48 48 49 51 54 55 56 61 65 66 66 65 65 65 64 64 64 64 64 63 62 61 60 59 60 63 64 67 68
41 42 43 44 44 44 44 45 46 46 47 46 47 48 49 48 49 51 53 55 55 58 60 63 63 65 64 64 64 64 64 64 64 64 63 62 61 60 59 60 62 63 65
41 42 43 44 44 44 46 46 47 47 47 47 47 48 48 48 48 50 52 53 56 57 57 60 59 62 63 64 64 64 64 64 64 64 63 62 61 60 60 60 60 60 62
42 42 43 44 45 46 47 47 47 47 48 48 48 48 48 49 49 49 51 53 54 55 55 56 58 59 62 63 62 61 63 64 64 63 63 63 62 61 59 59 59 60 59
41 42 43 44 45 46 49 49 48 48 48 48 49 50 50 50 51 51 51 53 54 56 56 57 57 58 60 62 59 60 57 59 62 62 63 62 62 62 60 58 59 59 59
41 42 42 43 45 47 48 50 51 50 50 50 51 51 50 50 52 54 55 56 57 58 58 58 59 58 58 59 60 58 55 55 58 61 61 61 61 61 61 59 58 58 58
41 42 42 43 44 45 46 47 48 49 49 49 48 50 52 53 55 55 55 55 56 57 57 59 59 58 57 55 57 58 59 58 54 53 59 60 61 60 60 60 58 57 57
41 41 42 43 43 43 44 45 45 46 47 47 47 47 48 49 49 50 50 51 51 53 54 55 56 56 57 56 55 56 55 57 57 55 53 57 60 60 61 60 59 59 59
41 40 41 42 42 41 41 41 42 42 44 45 45 46 47 48 49 47 47 49 49 50 50 51 52 52 53 55 56 56 55 53 52 54 54 55 55 58 61 62 61 61 61
Lifted_Index
-0 -1 -1 -2 -3 -3 -3 -3 -3 -3 -3 -2 -2 -2 -1 -1 -1 -0 0 1 2 3 2 2 1 1 0 1 1 1 1 0 0 0 1 1 2 2 2 3 3 3 3
-0 -1 -1 -2 -3 -3 -3 -3 -3 -3 -3 -2 -1 -1 -1 -1 -0 0 1 1 2 2 2 1 1 0 0 1 1 1 1 1 1 1 1 1 1 2 2 3 3 3 3
-1 -1 -1 -2 -3 -3 -3 -3 -3 -3 -3 -2 -1 -0 -0 -0 -0 1 1 1 1 1 1 0 -0 0 0 1 2 2 1 1 1 1 2 1 1 1 2 3 3 3 3
-0 -1 -2 -3 -3 -3 -3 -3 -3 -3 -3 -2 -1 -1 -1 -1 -0 0 1 1 0 0 0 -0 -0 0 1 1 2 2 2 1 1 2 2 1 1 1 2 3 4 4 4
0 -1 -2 -3 -3 -3 -3 -3 -3 -3 -3 -3 -2 -1 -1 -1 -1 -0 0 0 -0 -0 -0 0 0 1 1 1 1 1 2 2 2 2 2 1 1 2 3 3 4 4 4
1 0 -1 -2 -3 -3 -3 -3 -3 -3 -3 -3 -3 -2 -2 -2 -2 -2 -1 -1 -1 -1 -0 0 1 1 1 1 1 1 2 2 2 2 2 2 2 3 3 4 4 4 4
1 1 0 -1 -2 -2 -2 -2 -2 -2 -2 -2 -2 -2 -2 -2 -2 -2 -2 -2 -1 -1 -1 -0 1 2 2 1 1 2 3 3 2 2 2 2 3 3 3 4 4 4 4
4 3 2 1 0 -1 -1 -2 -2 -2 -2 -2 -2 -2 -2 -2 -2 -2 -2 -2 -2 -2 -2 -1 0 1 2 2 1 2 3 4 3 3 3 3 3 3 3 3 4 4 4
10 8 6 4 2 1 0 -1 -1 -1 -2 -2 -2 -2 -2 -2 -2 -2 -2 -2 -2 -2 -2 -1 -1 0 1 1 1 1 3 4 4 3 3 3 3 3 3 3 3 3 4
13 12 11 9 7 4 3 1 0 -0 -1 -1 -1 -1 -1 -1 -2 -2 -2 -2 -2 -2 -2 -2 -1 -1 0 1 1 1 2 4 4 3 3 4 3 3 3 3 3 3 3
14 14 14 13 12 10 7 5 3 2 1 0 -0 -1 -1 -1 -1 -1 -1 -1 -1 -2 -2 -2 -2 -1 -0 0 1 1 2 3 4 4 4 4 3 3 2 2 2 2 3
14 14 14 14 14 13 12 10 8 5 3 1 1 0 -0 -1 -1 -1 -1 -1 -1 -1 -1 -2 -2 -1 -1 0 1 2 2 3 4 5 5 5 4 2 2 1 1 2 2
14 14 14 14 14 13 13 13 12 10 7 5 3 2 0 -0 -1 -1 -1 -1 -1 -1 -1 -1 -1 -1 -1 -0 1 2 2 3 4 5 6 6 5 3 1 1 0 1 1
14 13 13 13 13 13 13 13 12 12 11 9 7 5 3 1 0 -1 -1 -1 -1 -1 -1 -1 -1 -1 -1 -1 0 1 2 2 3 4 5 6 6 4 2 1 -0 -0 0
13 13 12 12 12 12 12 12 12 12 12 12 11 10 8 5 3 1 0 -1 -1 -1 -1 -1 -1 -1 -1 -1 -1 -0 0 1 2 3 4 5 6 5 3 1 0 -0 -0
12 12 12 12 12 12 12 12 12 12 12 12 12 12 12 10 8 5 3 2 1 -0 -1 -1 -1 -1 -1 -1 -1 -1 -0 -0 1 1 2 4 5 5 4 2 1 -0 -1
12 11 11 12 12 12 12 12 12 12 12 12 12 13 13 12 11 9 7 5 3 1 0 -0 -1 -1 -1 -1 -1 -1 -1 -1 -0 0 1 2 3 4 4 3 2 0 -1
11 11 12 12 12 11 11 12 12 12 12 12 12 12 12 12 12 11 10 8 6 4 2 1 0 -0 -0 -1 -1 -1 -1 -1 -1 -1 -0 0 1 3 4 4 2 1 -0
11 12 12 12 12 11 11 12 12 12 12 12 12 12 12 12 12 12 11 9 8 6 4 3 2 1 0 -0 -1 -1 -1 -1 -1 -1 -1 -1 -0 0 1 2 2 2 1
12 12 12 11 11 11 11 11 11 12 12 12 12 12 12 12 12 11 11 10 8 7 6 4 3 2 1 0 -0 -1 -1 -1 -1 -1 -1 -1 -1 -1 -1 0 1 1 2
12 12 11 11 11 11 11 11 11 11 11 11 10 11 11 11 11 11 10 10 8 7 6 5 4 3 2 1 0 0 -0 -1 -1 -1 -1 -1 -1 -1 -1 -1 -1 -0 1
12 12 11 11 10 10 10 11 10 10 10 9 9 9 10 10 10 10 9 9 8 7 6 5 4 4 3 2 1 1 1 0 -0 -1 -1 -1 -1 -1 -1 -1 -1 -1 -0
13 12 11 11 10 10 10 10 9 9 9 9 8 9 9 9 9 9 8 8 7 6 5 5 4 4 4 3 3 2 2 1 0 -0 -0 -1 -1 -1 -1 -1 -1 -1 -1
13 12 12 11 10 9 9 9 9 9 9 8 8 8 9 9 9 9 8 8 7 6 6 5 5 5 5 5 4 3 2 1 1 1 0 -0 -1 -0 -0 0 0 -0 -0
13 13 12 11 10 10 9 9 9 9 9 9 9 9 9 9 9 9 9 9 8 8 7 7 7 7 6 6 5 4 2 1 1 1 1 0 -0 -0 0 0 0 0 0
12 13 12 11 11 10 10 10 10 10 9 9 9 9 9 9 9 10 9 9 9 9 8 8 8 8 7 7 6 4 2 1 1 1 0 -0 -0 0 0 0 0 1 1